Location: Presov
(49.0000°N, 21.2500°E)
Time: 06:21:19
(UTC+02:00)

Transit 2A Rocket - Pass Details

Date: 14 April 2021
Orbit: 594 x 909 km, 66.7° (Epoch: 07 May)

Event Time Altitude Azimuth Distance (km) Brightness Sun altitude
Rises 17:02:26 0° 199° (SSW) 2,974 8.5 22.4°
Reaches altitude 10° 17:04:49 10° 194° (SSW) 2,026 7.6 22.0°
Maximum altitude 17:09:11 50° 120° (ESE) 787 5.1 21.3°
Drops below altitude 10° 17:13:23 10° 45° (NE) 1,946 6.7 20.6°
Sets 17:15:39 0° 40° (NE) 2,844 7.5 20.3°
